Home   Weather   St. George   Past weeks

Flag for USA Past Weather in St. George, Utah, USA — Yesterday and Last 2 Weeks

Now
43 °F

Mostly cloudy.


Feels Like: 37 °F
Forecast: 36 / 45 °F
Wind: 9 mph from Southeast

Location: Saint George

Current Time: Jan 20, 2017 at 5:20:22 pm

Latest Report: Jan 20, 2017 at 4:55 pm


Visibility: 10 mi

Pressure: 29.45 "Hg (26.57 "Hg at 842m altitude)

Humidity: 76%

Dew Point: 36 °F

Location of St. GeorgeLocation

Past Weather in St. George — Graph

°F

St. George Temperature Yesterday

Maximum temperature yesterday: 45 °F (at 1:15 pm)
Minimum temperature yesterday: 39 °F (at 8:35 pm)
Average temperature yesterday: 42 °F

High & Low Weather Summary for the Past Weeks

 TemperatureHumidityPressure
High59 °F (Jan 9, 2:15 pm)87% (Jan 5, 3:15 pm)30.42 "Hg (Jan 5, 3:15 pm)
Low19 °F (Jan 6, 4:55 am)34% (Jan 16, 3:15 pm)29.49 "Hg (Jan 20, 3:55 pm)
Average42 °F66%30.07 "Hg
* Reported Jan 5 3:15 pm — Jan 20 3:55 pm, St. George, Weather by CustomWeather, © 2017

Note: Actual official high and low records may vary slightly from our data, if they occured in-between our weather recording intervals... More about our weather records

Advertising

St. George Weather History for the Previous 24 Hours

Scroll right to see more
 ConditionsComfort  
Time TempWeatherWind HumidityBarometerVisibility
3:55 pm
Fri, Jan 20
43 °FMostly cloudy.8 mph76%29.49 "Hg10 mi
3:35 pm43 °FOvercast.6 mph76%29.50 "Hg10 mi
3:15 pm43 °FMostly cloudy.3 mph81%29.51 "Hg10 mi
2:55 pm43 °FMore clouds than sun.7 mph81%29.52 "Hg10 mi
2:35 pm43 °FCloudy.3 mph76%29.52 "Hg10 mi
2:15 pm41 °FBroken clouds.5 mph81%29.52 "Hg10 mi
1:55 pm41 °FCloudy.6 mph81%29.54 "Hg10 mi
1:35 pm39 °FMostly cloudy.3 mph87%29.54 "Hg10 mi
1:15 pm39 °FMostly cloudy.5 mph87%29.56 "Hg10 mi
12:55 pm39 °FOvercast.No wind87%29.57 "Hg8 mi
12:35 pm39 °FMostly cloudy.No wind87%29.59 "Hg10 mi
12:15 pm39 °FMostly cloudy.No wind87%29.61 "Hg10 mi
11:55 am39 °FMostly cloudy.No wind87%29.62 "Hg10 mi
11:35 am39 °FMore clouds than sun.3 mph87%29.63 "Hg10 mi
11:15 am39 °FMostly cloudy.3 mph87%29.64 "Hg10 mi
10:55 am37 °FMostly cloudy.3 mph87%29.65 "Hg9 mi
10:35 am37 °FMostly cloudy.3 mph87%29.66 "Hg4 mi
10:15 am37 °FBroken clouds.No wind87%29.67 "Hg10 mi
9:55 am37 °FMostly cloudy.5 mph87%29.67 "Hg9 mi
9:35 am37 °FMostly cloudy.5 mph87%29.66 "Hg10 mi
9:15 am37 °FMostly cloudy.No wind87%29.66 "Hg5 mi
8:55 am37 °FMostly cloudy.No wind87%29.66 "Hg6 mi
8:35 am37 °FMore clouds than sun.No wind87%29.67 "Hg3 mi
8:15 am37 °FOvercast.6 mph87%29.68 "Hg10 mi
7:55 am37 °FOvercast.No wind87%29.68 "Hg10 mi
7:35 am37 °FPassing clouds.No wind87%29.69 "Hg10 mi
7:15 am37 °FPassing clouds.5 mph87%29.69 "Hg10 mi
6:55 am37 °FPartly cloudy.No wind87%29.71 "Hg9 mi
6:35 am37 °FMostly cloudy.No wind87%29.71 "Hg10 mi
6:15 am37 °FPartly cloudy.5 mph87%29.72 "Hg10 mi
5:55 am37 °FPartly cloudy.3 mph87%29.72 "Hg9 mi
5:35 am37 °FMostly cloudy.No wind87%29.73 "Hg10 mi
5:15 am37 °FOvercast.6 mph87%29.74 "Hg10 mi
4:55 am37 °FPartly cloudy.No wind87%29.74 "Hg10 mi
4:35 am37 °FOvercast.6 mph87%29.75 "Hg10 mi
4:15 am37 °FOvercast.No wind87%29.75 "Hg10 mi
3:55 am39 °FMostly cloudy.No wind81%29.75 "Hg10 mi
3:35 am39 °FMostly cloudy.No wind81%29.75 "Hg10 mi
3:15 am39 °FOvercast.No wind81%29.75 "Hg10 mi
2:55 am39 °FOvercast.No wind81%29.75 "Hg10 mi
2:35 am37 °FOvercast.3 mph87%29.75 "Hg10 mi
2:15 am39 °FOvercast.3 mph81%29.76 "Hg10 mi
1:55 am39 °FMostly cloudy.3 mph81%29.77 "Hg10 mi
1:35 am39 °FMostly cloudy.3 mph81%29.77 "Hg10 mi
12:55 am39 °FOvercast.3 mph81%29.77 "Hg10 mi
12:35 am39 °FOvercast.6 mph81%29.78 "Hg10 mi
12:15 am39 °FMostly cloudy.No wind81%29.79 "Hg10 mi
11:55 pm
Thu, Jan 19
39 °FMostly cloudy.3 mph81%29.80 "Hg10 mi
11:35 pm39 °FPassing clouds.6 mph81%29.80 "Hg10 mi
11:15 pm39 °FPassing clouds.7 mph81%29.79 "Hg10 mi
10:55 pm39 °FPassing clouds.6 mph81%29.79 "Hg10 mi
10:35 pm39 °FPassing clouds.5 mph81%29.79 "Hg10 mi
10:15 pm39 °FPassing clouds.7 mph81%29.79 "Hg10 mi
9:55 pm39 °FPartly cloudy.7 mph81%29.78 "Hg10 mi
9:35 pm39 °FPassing clouds.10 mph87%29.78 "Hg10 mi
9:15 pm39 °FOvercast.No wind87%29.79 "Hg5 mi
8:55 pm39 °FOvercast.6 mph81%29.80 "Hg9 mi
8:35 pm39 °FMostly cloudy.6 mph87%29.79 "Hg7 mi
8:15 pm41 °FOvercast.3 mph81%29.79 "Hg10 mi
7:55 pm41 °FOvercast.No wind81%29.79 "Hg10 mi
7:35 pm43 °FMostly cloudy.3 mph81%29.79 "Hg10 mi
7:15 pm43 °FPartly cloudy.6 mph81%29.80 "Hg10 mi
6:55 pm43 °FOvercast.No wind87%29.80 "Hg6 mi
6:35 pm43 °FMostly cloudy.No wind81%29.80 "Hg8 mi
5:55 pm43 °FMostly cloudy.3 mph81%29.80 "Hg10 mi
5:35 pm43 °FOvercast.5 mph81%29.80 "Hg9 mi
5:15 pm43 °FCloudy.5 mph81%29.79 "Hg10 mi
Weather by CustomWeather, © 2017

See weather overviewHow to use our weather pages